sat.trackr.live / text

‹ back to catalog

ONEWEB-0245

NORAD 48778 · 2021-045M

PAYLOAD ACTIVE UNKNOWN

§ Identity

Operator
Country
UK
Launch date
2021-05-28
Launch site
VOSTO
Launch vehicle
Mass (kg)
RCS (m²)

Purposes: comms

External: N2YO · Heavens-Above · Gunter

§ Orbital elements

Epoch: 2026-09-20T05:08:29.026176Z

Period
109.46 min
Inclination
87.8991°
Eccentricity
0.0001813
Mean motion
13.15549952 rev/d
Perigee alt
1,200.4 km
Apogee alt
1,203.1 km
Semi-major
7,579.9 km
B*
1.1606e-4
RAAN
240.2503°
Arg perigee
81.0000°
Mean anomaly
279.1336°
Rev number
25,687

§ Raw data

ONEWEB-02451 48778U 21045M   26263.21422484  .00000057  00000+0  11606-3 0  99902 48778  87.8991 240.2503 0001813  81.0000 279.1336 13.15549952256879

JSON: /api/v1/satellites/48778 · /tle

For live sub-satellite position, see the globe view (requires WebGL).

§ Visibility from observer

Set your observer location to see the next 7 days of passes ≥ 10°. The values pass through the URL so the page stays shareable.

No JS? Fill the form by hand. The geolocation button needs JavaScript.